Location: Unspecified
(42.2600°N, 0.0000°E)
Time: 22:39:08
(UTC+00:00)

ISS - Pass Details

Date: 29 May 2019
Orbit: 408 x 418 km, 51.6° (Epoch: 19 June)

Event Time Altitude Azimuth Distance (km) Brightness Sun altitude
Rises 22:53:34 0° 301° (WNW) 2,360 0.8 -24.4°
Reaches altitude 10° 22:55:41 10° 297° (WNW) 1,496 -0.4 -24.5°
Enters shadow 22:57:00 21° 290° (WNW) 986 -1.6 -24.5°
